When you browse on this site, cookies collect data to enhance your experience and personalize the content and advertising you see.
Visit our Privacy Policy to learn more. By continuing to use the site, you agree to this use of cookies and data.
  • In Portugal
  • List of Countries
  • For 7 days
  • Water Temperature
  • Satellite Maps
  • Weather Map
  • Weather Widgets
  • user-avatar
    Login

    Hourly Weather Jalalabad

    Today, 22 July, Monday

    Time Temperature Precipitation Wind Pressure Humidity
    00:00 +37°C° 0.3 mm 2 mps 706 mmHg 47%
    01:00 +35°C° 0.3 mm 1 mps 705 mmHg 49%
    02:00 +35°C° 0.3 mm 1 mps 705 mmHg 51%
    03:00 +33°C° 0.2 mm 0 mps 705 mmHg 53%
    04:00 +32°C° 0.2 mm 0 mps 705 mmHg 54%
    05:00 +34°C° 0 mm 1 mps 705 mmHg 54%
    06:00 +34°C° 0.1 mm 1 mps 705 mmHg 51%
    07:00 +35°C° 0.1 mm 1 mps 706 mmHg 48%
    08:00 +36°C° 0.1 mm 1 mps 706 mmHg 46%
    09:00 +37°C° 0 mm 2 mps 706 mmHg 43%
    10:00 +38°C° 0 mm 2 mps 705 mmHg 40%
    11:00 +39°C° 0 mm 3 mps 705 mmHg 38%
    12:00 +40°C° 0 mm 3 mps 705 mmHg 36%
    13:00 +42°C° 0 mm 4 mps 705 mmHg 33%
    14:00 +42°C° 0 mm 4 mps 705 mmHg 31%
    15:00 +42°C° 0 mm 4 mps 704 mmHg 30%
    16:00 +43°C° 0 mm 4 mps 704 mmHg 29%
    17:00 +43°C° 0 mm 4 mps 703 mmHg 29%
    18:00 +42°C° 0 mm 4 mps 704 mmHg 32%
    19:00 +41°C° 0 mm 4 mps 704 mmHg 35%
    20:00 +40°C° 0 mm 4 mps 704 mmHg 38%
    21:00 +39°C° 0 mm 3 mps 705 mmHg 40%
    22:00 +38°C° 0 mm 2 mps 705 mmHg 42%
    23:00 +37°C° 0 mm 1 mps 705 mmHg 44%

    Tomorrow, 23 July, Tuesday

    Time Temperature Precipitation Wind Pressure Humidity
    00:00 +36°C° 0 mm 1 mps 705 mmHg 45%
    01:00 +36°C° 0 mm 1 mps 705 mmHg 47%
    02:00 +35°C° 0 mm 1 mps 705 mmHg 49%
    03:00 +35°C° 0 mm 1 mps 705 mmHg 50%
    04:00 +35°C° 0 mm 1 mps 704 mmHg 51%
    05:00 +32°C° 0 mm 0 mps 704 mmHg 53%
    06:00 +35°C° 0 mm 1 mps 704 mmHg 50%
    07:00 +35°C° 0 mm 1 mps 705 mmHg 47%
    08:00 +36°C° 0 mm 1 mps 705 mmHg 45%
    09:00 +37°C° 0 mm 1 mps 705 mmHg 42%
    10:00 +39°C° 0 mm 1 mps 704 mmHg 39%
    11:00 +40°C° 0 mm 2 mps 704 mmHg 36%
    12:00 +41°C° 0 mm 2 mps 704 mmHg 33%
    13:00 +42°C° 0 mm 2 mps 703 mmHg 29%
    14:00 +43°C° 0 mm 2 mps 703 mmHg 26%
    15:00 +44°C° 0 mm 3 mps 703 mmHg 25%
    16:00 +44°C° 0 mm 3 mps 702 mmHg 25%
    17:00 +45°C° 0 mm 3 mps 702 mmHg 24%
    18:00 +44°C° 0 mm 3 mps 702 mmHg 26%
    19:00 +43°C° 0 mm 3 mps 702 mmHg 28%
    20:00 +42°C° 0 mm 3 mps 703 mmHg 30%
    21:00 +41°C° 0 mm 2 mps 703 mmHg 32%
    22:00 +40°C° 0 mm 2 mps 703 mmHg 35%
    23:00 +39°C° 0 mm 1 mps 703 mmHg 38%

    Day after tomorrow, 24 July, Wednesday

    Time Temperature Precipitation Wind Pressure Humidity
    00:00 +39°C° 0 mm 1 mps 703 mmHg 39%
    01:00 +37°C° 0 mm 1 mps 703 mmHg 40%
    02:00 +37°C° 0 mm 1 mps 703 mmHg 42%
    03:00 +36°C° 0 mm 1 mps 702 mmHg 44%
    04:00 +36°C° 0 mm 1 mps 702 mmHg 46%
    05:00 +33°C° 0 mm 0 mps 702 mmHg 48%
    06:00 +36°C° 0 mm 1 mps 703 mmHg 45%
    07:00 +37°C° 0 mm 1 mps 703 mmHg 42%
    08:00 +37°C° 0 mm 1 mps 703 mmHg 39%
    09:00 +39°C° 0 mm 1 mps 703 mmHg 36%
    10:00 +40°C° 0 mm 2 mps 703 mmHg 34%
    11:00 +41°C° 0 mm 2 mps 703 mmHg 31%
    12:00 +42°C° 0 mm 2 mps 702 mmHg 28%
    13:00 +43°C° 0 mm 2 mps 702 mmHg 25%
    14:00 +45°C° 0 mm 2 mps 701 mmHg 21%
    15:00 +45°C° 0 mm 3 mps 701 mmHg 21%
    16:00 +46°C° 0 mm 3 mps 701 mmHg 20%
    17:00 +46°C° 0 mm 3 mps 700 mmHg 19%
    18:00 +45°C° 0 mm 3 mps 701 mmHg 21%
    19:00 +44°C° 0 mm 3 mps 701 mmHg 23%
    20:00 +43°C° 0 mm 3 mps 701 mmHg 25%
    21:00 +42°C° 0 mm 2 mps 702 mmHg 28%
    22:00 +41°C° 0 mm 2 mps 702 mmHg 30%
    23:00 +40°C° 0 mm 1 mps 702 mmHg 33%

    25 July, Thursday

    Time Temperature Precipitation Wind Pressure Humidity
    00:00 +40°C° 0 mm 1 mps 702 mmHg 35%
    01:00 +39°C° 0 mm 1 mps 702 mmHg 37%
    02:00 +39°C° 0 mm 1 mps 702 mmHg 38%
    03:00 +37°C° 0 mm 1 mps 702 mmHg 40%
    04:00 +37°C° 0 mm 1 mps 702 mmHg 41%
    05:00 +36°C° 0 mm 1 mps 702 mmHg 42%
    06:00 +37°C° 0 mm 1 mps 702 mmHg 39%
    07:00 +39°C° 0 mm 1 mps 702 mmHg 37%
    08:00 +40°C° 0 mm 1 mps 703 mmHg 34%
    09:00 +41°C° 0 mm 1 mps 703 mmHg 32%
    10:00 +42°C° 0 mm 2 mps 703 mmHg 29%
    11:00 +44°C° 0 mm 3 mps 702 mmHg 27%
    12:00 +44°C° 0 mm 3 mps 702 mmHg 25%
    13:00 +45°C° 0 mm 3 mps 701 mmHg 23%
    14:00 +47°C° 0 mm 4 mps 701 mmHg 21%
    15:00 +45°C° 0 mm 4 mps 701 mmHg 23%
    16:00 +46°C° 0 mm 5 mps 700 mmHg 24%
    17:00 +46°C° 0 mm 6 mps 700 mmHg 26%
    18:00 +43°C° 0 mm 5 mps 700 mmHg 29%
    19:00 +42°C° 0 mm 4 mps 701 mmHg 31%
    20:00 +40°C° 0 mm 3 mps 701 mmHg 34%
    21:00 +40°C° 0 mm 4 mps 701 mmHg 38%
    22:00 +38°C° 0 mm 4 mps 702 mmHg 42%
    23:00 +37°C° 0 mm 4 mps 702 mmHg 46%

    26 July, Friday

    Time Temperature Precipitation Wind Pressure Humidity
    00:00 +36°C° 0.1 mm 4 mps 702 mmHg 51%
    01:00 +35°C° 0.1 mm 3 mps 702 mmHg 57%
    02:00 +34°C° 0.1 mm 3 mps 702 mmHg 63%
    03:00 +32°C° 0.1 mm 2 mps 702 mmHg 66%
    04:00 +32°C° 0.1 mm 2 mps 702 mmHg 68%
    05:00 +31°C° 0.1 mm 2 mps 701 mmHg 71%
    06:00 +31°C° 0.1 mm 2 mps 702 mmHg 69%
    07:00 +32°C° 0.1 mm 2 mps 702 mmHg 68%
    08:00 +32°C° 0.1 mm 2 mps 702 mmHg 67%
    09:00 +34°C° 0.1 mm 3 mps 702 mmHg 62%
    10:00 +35°C° 0.1 mm 3 mps 703 mmHg 58%
    11:00 +36°C° 0.1 mm 4 mps 703 mmHg 53%
    12:00 +37°C° 0 mm 4 mps 702 mmHg 52%
    13:00 +37°C° 0 mm 5 mps 702 mmHg 50%
    14:00 +39°C° 0 mm 6 mps 702 mmHg 48%
    15:00 +38°C° 0.1 mm 6 mps 702 mmHg 51%
    16:00 +36°C° 0.1 mm 6 mps 702 mmHg 53%
    17:00 +36°C° 0.1 mm 7 mps 702 mmHg 56%
    18:00 +34°C° 0.1 mm 6 mps 702 mmHg 60%
    19:00 +33°C° 0.1 mm 5 mps 702 mmHg 64%
    20:00 +32°C° 0.1 mm 4 mps 703 mmHg 67%
    21:00 +31°C° 0.2 mm 3 mps 703 mmHg 69%
    22:00 +31°C° 0.2 mm 3 mps 704 mmHg 70%
    23:00 +30°C° 0.2 mm 2 mps 704 mmHg 71%

    27 July, Saturday

    Time Temperature Precipitation Wind Pressure Humidity
    00:00 +30°C° 0.3 mm 2 mps 704 mmHg 72%
    01:00 +30°C° 0.3 mm 2 mps 704 mmHg 73%
    02:00 +30°C° 0.3 mm 2 mps 704 mmHg 74%
    03:00 +29°C° 0.3 mm 1 mps 703 mmHg 74%
    04:00 +29°C° 0.3 mm 1 mps 703 mmHg 74%
    05:00 +29°C° 0.3 mm 1 mps 703 mmHg 75%
    06:00 +30°C° 0.1 mm 1 mps 703 mmHg 73%
    07:00 +30°C° 0.1 mm 1 mps 704 mmHg 71%
    08:00 +30°C° 0.1 mm 1 mps 704 mmHg 69%
    09:00 +31°C° 0 mm 2 mps 704 mmHg 64%
    10:00 +34°C° 0 mm 2 mps 704 mmHg 59%
    11:00 +35°C° 0 mm 3 mps 704 mmHg 53%
    12:00 +36°C° 0 mm 3 mps 703 mmHg 49%
    13:00 +37°C° 0 mm 3 mps 703 mmHg 45%
    14:00 +38°C° 0 mm 4 mps 703 mmHg 41%
    15:00 +38°C° 0 mm 4 mps 703 mmHg 41%
    16:00 +39°C° 0 mm 5 mps 702 mmHg 41%
    17:00 +40°C° 0 mm 5 mps 702 mmHg 40%
    18:00 +39°C° 0 mm 5 mps 702 mmHg 44%
    19:00 +37°C° 0 mm 5 mps 702 mmHg 48%
    20:00 +36°C° 0 mm 5 mps 703 mmHg 52%
    21:00 +35°C° 0 mm 4 mps 703 mmHg 53%
    22:00 +35°C° 0 mm 3 mps 703 mmHg 55%
    23:00 +34°C° 0 mm 2 mps 704 mmHg 56%
    Show more